Location: Gro�wechsungen
(51.4926°N, 10.6901°E)
Time: 11:13:42
(UTC+00:00)

ATLAS 2AS CENTAUR R/B - Pass Details

Date: 18 September 2020
Orbit: 939 x 1273 km, 63.7° (Epoch: 19 October)

Event Time Altitude Azimuth Distance (km) Brightness Sun altitude
Rises 19:14:02 0° 174° (S) 4,191 5.5 -17.3°
Enters shadow 19:16:57 - 165° (SSE) 3,343 4.9 -17.8°
Exits shadow 19:24:45 25° 97° (E) 2,303 3.9 -18.8°
Drops below altitude 10° 19:29:47 10° 58° (ENE) 3,248 4.9 -19.5°
Sets 19:33:02 0° 47° (NE) 4,192 5.6 -20.0°
